Voltar ao catálogo

SPACEEYE-T1

AtivoCiênciaSSO
NORAD 63229·PAYLOAD·🇰🇷 South Korea

Lançado Mar 15, 2025 de Vandenberg Space Force Base

Loading…

Próximas Passagens (próximas 24 horas)

TLE

AtualizadoSource: Space-Track

Época: Sep 14, 2026, 15:02 UTC

1 63229U 25052V   26257.62682651  .00003741  00000-0  16133-3 0  9996
2 63229  97.3805 148.7120 0004493 174.7768 185.3517 15.23156546 83457

Acompanhe SPACEEYE-T1 em tempo real com AllMySat

Download on the App Store